Oakland, CA

1:23 AM PST on December 11, 2019 (GMT -0800)
Metro Oakland International

Weather History for KOAK - October, 2019

Change the Weather History Date:

Tuesday, October 1, 2019

  Actual Average Record
Temperature  
Mean Temperature 58 °F 63 °F  
Max Temperature 71 °F 73 °F 94 °F (1952)
Min Temperature 46 °F 53 °F 42 °F (1950)
Degree Days  
Heating Degree Days 7 3  
Month to date heating degree days 3  
Since 1 July heating degree days 203  
Cooling Degree Days 0 1  
Month to date cooling degree days 1  
Year to date cooling degree days 126  
Growing Degree Days 8 (Base 50)    
Moisture  
Dew Point 44 °F    
Average Humidity 61    
Maximum Humidity 80    
Minimum Humidity 36    
Precipitation  
Precipitation 0.00 in 0.01 in 0.42 in (1976)
Month to date precipitation 0.01  
Year to date precipitation 13.51  
Sea Level Pressure  
Sea Level Pressure 29.99 in    
Wind  
Wind Speed 6 mph (NW)    
Max Wind Speed 20 mph    
Max Gust Speed -    
Visibility 10 miles    
Events      
T = Trace of Precipitation, MM = Missing Value Source: NWS Daily Summary

Daily Weather History Graph

Daily Weather History Graph

Search for Another Location

Airport or City:

Astronomy

Oct. 01, 2019 Rise Set
Actual Time 7:04 AM PDT 6:52 PM PDT
Civil Twilight 6:38 AM PDT 7:18 PM PDT
Nautical Twilight 6:07 AM PDT 7:48 PM PDT
Astronomical Twilight 5:37 AM PDT 8:19 PM PDT
Moon 10:23 AM PDT (10/1) 9:12 PM PDT (10/1)
Length of Visible Light 12h 40m
Length of Day
11h 47m
Waxing Crescent, 13% of the Moon is Illuminated
Oct 1
Waxing Crescent
Oct 5
First Quarter
Oct 13
Full
Oct 21
Last Quarter
Oct 27
New

Hourly Weather History & Observations

Time (PDT) Temp. Dew Point Humidity Pressure Visibility Wind Dir Wind Speed Gust Speed Precip Events Conditions
12:53 AM 52.0 °F 42.1 °F 69% 29.99 in 10.0 mi ENE 3.5 mph - N/A   Clear
1:53 AM 48.9 °F 41.0 °F 74% 29.98 in 10.0 mi ESE 3.5 mph - N/A   Clear
2:53 AM 50.0 °F 42.1 °F 74% 29.98 in 10.0 mi Calm Calm - N/A   Clear
3:53 AM 48.9 °F 42.1 °F 77% 29.97 in 10.0 mi NE 4.6 mph - N/A   Clear
4:53 AM 48.9 °F 42.1 °F 77% 29.97 in 10.0 mi ENE 3.5 mph - N/A   Clear
5:53 AM 46.9 °F 39.9 °F 77% 29.97 in 10.0 mi Calm Calm - N/A   Clear
6:53 AM 48.0 °F 41.0 °F 77% 29.98 in 10.0 mi NE 3.5 mph - N/A   Clear
7:53 AM 50.0 °F 44.1 °F 80% 29.99 in 10.0 mi ENE 3.5 mph - N/A   Partly Cloudy
8:53 AM 57.0 °F 46.0 °F 67% 30.01 in 10.0 mi South 3.5 mph - N/A   Partly Cloudy
9:53 AM 57.9 °F 46.0 °F 65% 30.02 in 10.0 mi Calm Calm - N/A   Clear
10:53 AM 60.1 °F 46.0 °F 60% 30.02 in 10.0 mi WSW 5.8 mph - N/A   Partly Cloudy
11:53 AM 62.1 °F 46.9 °F 58% 30.03 in 10.0 mi SW 4.6 mph - N/A   Partly Cloudy
12:53 PM 64.9 °F 46.0 °F 50% 30.01 in 10.0 mi WSW 9.2 mph - N/A   Partly Cloudy
1:53 PM 69.1 °F 46.0 °F 44% 29.99 in 10.0 mi West 15.0 mph - N/A   Partly Cloudy
2:53 PM 70.0 °F 42.1 °F 36% 29.98 in 10.0 mi West 17.3 mph - N/A   Partly Cloudy
3:53 PM 70.0 °F 42.1 °F 36% 29.97 in 10.0 mi WNW 19.6 mph - N/A   Clear
4:53 PM 69.1 °F 43.0 °F 39% 29.97 in 10.0 mi West 19.6 mph - N/A   Clear
5:53 PM 66.9 °F 39.9 °F 37% 29.97 in 10.0 mi West 18.4 mph - N/A   Clear
6:53 PM 64.0 °F 42.1 °F 45% 29.98 in 10.0 mi WNW 12.7 mph - N/A   Clear
7:53 PM 61.0 °F 46.9 °F 60% 29.99 in 10.0 mi WNW 8.1 mph - N/A   Clear
8:53 PM 60.1 °F 46.9 °F 62% 29.99 in 10.0 mi NNW 5.8 mph - N/A   Clear
9:53 PM 61.0 °F 44.1 °F 54% 30.01 in 10.0 mi Calm Calm - N/A   Clear
10:53 PM 53.1 °F 43.0 °F 69% 30.01 in 10.0 mi ENE 3.5 mph - N/A   Clear
11:53 PM 53.1 °F 43.0 °F 69% 30.02 in 10.0 mi East 3.5 mph - N/A   Clear